CW2234 Weather Reports


Display with metric or nautical units.
time (UTC)temp
F
wind
direction
speed
MPH
gust
MPH
rain 1hr
in
rain 24hr
in
rain mn
in
humidity
%
barometer
mb
20260902201604 77 96 2.0 8.0 0.00 0.00 0.00 66 1015.5
20260902200135 77 140 2.0 7.0 0.00 0.00 0.00 66 1015.8
20260902194601 77 125 1.0 6.0 0.00 0.00 0.00 67 1015.8
20260902193057 76 102 1.0 6.0 0.00 0.00 0.00 68 1015.9
20260902191614 76 146 2.0 7.0 0.00 0.00 0.00 69 1016.1
20260902190115 77 136 2.0 7.0 0.00 0.00 0.00 68 1016.1
20260902184602 76 135 2.0 7.0 0.00 0.00 0.00 68 1016.2
20260902183108 76 0 1.0 8.0 0.00 0.00 0.00 68 1016.2
20260902181554 77 126 1.0 7.0 0.00 0.00 0.00 68 1016.1
20260902180126 76 132 1.0 4.0 0.00 0.00 0.00 69 1016.1
20260902174629 75 115 2.0 7.0 0.00 0.00 0.00 71 1016.1
20260902173106 75 97 1.0 4.0 0.00 0.00 0.00 70 1016.2
20260902171608 74 5 1.0 6.0 0.00 0.00 0.00 71 1016.1
20260902170103 72 292 1.0 6.0 0.00 0.00 0.00 73 1016.0
20260902164555 73 318 2.0 7.0 0.00 0.00 0.00 73 1016.1
20260902163104 72 12 1.0 5.0 0.00 0.00 0.00 76 1015.9
20260902161605 71 19 1.0 4.0 0.00 0.00 0.00 76 1016.0
20260902160100 71 5 1.0 5.0 0.00 0.00 0.00 77 1016.1
20260902154607 71 263 1.0 4.0 0.00 0.00 0.00 76 1016.0
20260902153100 70 0 0.0 2.0 0.00 0.00 0.00 77 1016.0
20260902151559 70 163 0.0 4.0 0.00 0.00 0.00 78 1016.0
20260902150108 69 159 0.0 2.0 0.00 0.00 0.00 80 1016.0
20260902144603 68 0 0.0 2.0 0.00 0.00 0.00 81 1015.8
20260902143105 67 0 0.0 1.0 0.00 0.00 0.00 83 1015.9
20260902141602 65 0 0.0 2.0 0.00 0.00 0.00 86 1015.7
20260902140104 64 158 0.0 1.0 0.00 0.00 0.00 88 1015.6
20260902134554 63 0 0.0 0.0 0.00 0.00 0.00 89 1015.4
20260902133057 62 0 0.0 0.0 0.00 0.00 0.00 88 1015.2
20260902131608 62 0 0.0 0.0 0.00 0.00 0.00 88 1015.2
20260902130057 63 0 0.0 1.0 0.00 0.00 0.00 87 1015.1
20260902124603 63 0 0.0 2.0 0.00 0.00 0.00 87 1015.1
20260902123059 63 0 0.0 1.0 0.00 0.00 0.00 87 1015.2
20260902121604 63 0 0.0 1.0 0.00 0.00 0.00 87 1015.3
20260902120108 63 0 0.0 2.0 0.00 0.00 0.00 87 1015.3
20260902114604 63 0 0.0 1.0 0.00 0.00 0.00 87 1015.4
20260902113113 63 0 0.0 0.0 0.00 0.00 0.00 87 1015.3
20260902111602 63 0 0.0 0.0 0.00 0.00 0.00 87 1015.4
20260902110057 63 0 0.0 1.0 0.00 0.00 0.00 87 1015.5
20260902104601 63 0 0.0 1.0 0.00 0.00 0.00 87 1015.4
20260902103101 64 0 0.0 0.0 0.00 0.00 0.00 86 1015.3
20260902101607 64 0 0.0 0.0 0.00 0.00 0.00 86 1015.4
20260902100101 64 0 0.0 0.0 0.00 0.00 0.00 86 1015.4
20260902094602 64 0 0.0 0.0 0.00 0.00 0.00 86 1015.5
20260902093058 64 0 0.0 0.0 0.00 0.00 0.00 86 1015.6
20260902091605 65 0 0.0 0.0 0.00 0.00 0.00 86 1015.5
20260902090128 65 0 0.0 0.0 0.00 0.00 0.00 86 1015.6
20260902084603 65 0 0.0 2.0 0.00 0.00 0.00 86 1015.6
20260902083100 65 0 0.0 0.0 0.00 0.00 0.00 85 1015.5
20260902081555 65 0 0.0 0.0 0.00 0.00 0.00 84 1015.7
20260902080109 66 0 0.0 0.0 0.00 0.00 0.00 83 1015.6
20260902074558 66 0 0.0 1.0 0.00 0.00 0.00 83 1015.7
20260902073100 67 0 0.0 1.0 0.00 0.00 0.00 82 1015.5
20260902071555 67 0 0.0 2.0 0.00 0.00 0.00 82 1015.2
20260902070106 67 0 0.0 2.0 0.00 0.00 0.00 82 1015.2
20260902064607 67 0 0.0 2.0 0.00 0.00 0.00 82 1015.1
20260902063053 68 0 0.0 1.0 0.00 0.00 0.00 81 1015.1
20260902061625 68 165 0.0 3.0 0.00 0.00 0.00 81 1015.1
20260902060104 68 0 0.0 1.0 0.00 0.00 0.00 80 1015.0
20260902054604 68 0 0.0 2.0 0.00 0.00 0.00 80 1014.8
20260902053058 69 0 0.0 5.0 0.00 0.00 0.00 79 1014.8
20260902051557 69 0 1.0 4.0 0.00 0.00 0.00 78 1014.9
20260902050107 69 0 0.0 4.0 0.00 0.00 0.00 78 1014.8
20260902044603 69 0 0.0 3.0 0.00 0.00 0.00 79 1014.7
20260902043104 69 109 0.0 4.0 0.00 0.00 0.00 78 1014.5
20260902041605 69 138 0.0 3.0 0.00 0.00 0.00 76 1014.4
20260902040053 69 0 0.0 5.0 0.00 0.00 0.00 76 1014.2
20260902034601 69 154 1.0 4.0 0.00 0.00 0.00 76 1013.9
20260902033106 69 138 1.0 7.0 0.00 0.00 0.00 77 1013.7
20260902031555 69 125 0.0 6.0 0.00 0.00 0.00 77 1013.6
20260902030118 69 116 2.0 7.0 0.00 0.00 0.00 77 1013.8
20260902024601 69 130 1.0 6.0 0.00 0.00 0.00 78 1013.7
20260902023112 69 109 1.0 7.0 0.00 0.00 0.00 79 1013.5
20260902021621 70 143 1.0 7.0 0.00 0.00 0.00 81 1013.4
20260902020104 71 170 2.0 9.0 0.00 0.00 0.00 77 1013.5
20260902014557 72 115 1.0 7.0 0.00 0.00 0.00 76 1013.6
20260902013106 73 0 1.0 7.0 0.00 0.00 0.00 75 1013.6
20260902011602 73 162 1.0 7.0 0.00 0.00 0.00 75 1013.7
20260902004559 74 149 1.0 6.0 0.00 0.00 0.00 74 1013.8
20260902003101 73 162 3.0 10.0 0.00 0.00 0.00 74 1013.9
20260902001604 74 129 1.0 12.0 0.00 0.00 0.00 74 1013.8
20260902000104 74 180 1.0 11.0 0.00 0.00 0.00 74 1013.9
20260901234614 74 150 1.0 9.0 0.00 0.00 0.00 74 1013.9
20260901233107 74 146 3.0 10.0 0.00 0.00 0.00 72 1014.0
20260901231606 74 152 3.0 10.0 0.00 0.00 0.00 73 1014.0
20260901230138 75 144 5.0 12.0 0.00 0.00 0.00 72 1014.1
20260901224601 75 109 2.0 9.0 0.00 0.00 0.00 72 1014.2
20260901223110 75 155 3.0 10.0 0.00 0.00 0.00 73 1014.2
20260901221603 75 138 2.0 7.0 0.00 0.00 0.00 70 1014.4
20260901220108 76 108 3.0 9.0 0.00 0.00 0.00 69 1014.4
20260901214556 76 232 3.0 10.0 0.00 0.00 0.00 70 1014.5
20260901213054 76 107 2.0 10.0 0.00 0.00 0.00 70 1014.7
20260901211603 77 0 1.0 8.0 0.00 0.00 0.00 70 1014.8
20260901210104 76 127 3.0 8.0 0.00 0.00 0.00 70 1015.0
20260901204555 76 122 2.0 10.0 0.00 0.00 0.00 69 1015.0
20260901203120 76 117 3.0 7.0 0.00 0.00 0.00 70 1015.1